McHenry, MD

5:13 PM EST on February 07, 2016 (GMT -0500)
Oakland

Weather History for K2G4 - October, 2012

Change the Weather History Date:

Monday, October 1, 2012

  Actual Average (KMGW) Record (KMGW)
Temperature  
Mean Temperature 50 °F 59 °F  
Max Temperature 62 °F 70 °F 85 °F (1952)
Min Temperature 39 °F 49 °F 26 °F (1993)
Degree Days  
Heating Degree Days 14 7  
Month to date heating degree days 7  
Since 1 July heating degree days 104  
Cooling Degree Days 0 1  
Month to date cooling degree days 1  
Year to date cooling degree days 802  
Moisture  
Dew Point 47 °F    
Average Humidity 87    
Maximum Humidity 100    
Minimum Humidity 59    
Precipitation  
Precipitation 0.00 in 0.09 in 2.20 in (1986)
Month to date precipitation 0.09  
Year to date precipitation 32.77  
Sea Level Pressure  
Sea Level Pressure 29.93 in    
Wind  
Wind Speed 5 mph (SE)    
Max Wind Speed 18 mph    
Max Gust Speed 24 mph    
Visibility 10 miles    
Events      
T = Trace of Precipitation, MM = Missing Value Source: NWS Daily Summary

Daily Weather History Graph

Daily Weather History Graph

Search for Another Location

Airport or City:

Trip Planner

Search our weather history database for the weather conditions in past years. The results will help you decide how hot, cold, wet, or windy it might be!

Date:

Astronomy

Oct. 01, 2012 Rise Set
Actual Time 7:13 AM EDT 6:59 PM EDT
Civil Twilight 6:47 AM EDT 7:25 PM EDT
Nautical Twilight 6:15 AM EDT 7:57 PM EDT
Astronomical Twilight 5:44 AM EDT 8:28 PM EDT
Moon 7:35 PM EDT (10/1) 8:41 AM EDT (10/1)
Length of Visible Light 12h 38m
Length of Day
11h 45m
Full, 98% of the Moon is Illuminated
Oct 1
Full
Oct 8
Last Quarter
Oct 15
New
Oct 21
First Quarter
Oct 29
Full

Hourly Weather History & Observations

Time (EDT) Temp. Windchill Dew Point Humidity Pressure Visibility Wind Dir Wind Speed Gust Speed Precip Events Conditions
12:15 AM 44.6 °F - 42.8 °F 93% 29.94 in 10.0 mi Calm Calm - N/A   Clear
12:40 AM 44.6 °F - 42.8 °F 93% 29.93 in 10.0 mi Calm Calm - N/A   Clear
1:00 AM 44.6 °F 43.1 °F 42.8 °F 93% 29.93 in 10.0 mi NNW 3.5 mph - N/A   Clear
1:20 AM 44.6 °F - 42.8 °F 93% 29.93 in 10.0 mi Calm Calm - N/A   Clear
1:40 AM 44.6 °F - 44.6 °F 100% 29.93 in 10.0 mi Calm Calm - N/A   Clear
2:05 AM 44.6 °F - 42.8 °F 93% 29.94 in 10.0 mi Calm Calm - N/A   Clear
2:45 AM 42.8 °F 39.3 °F 42.8 °F 100% 29.94 in 10.0 mi South 5.8 mph - N/A   Clear
3:05 AM 42.8 °F - 42.8 °F 100% 29.93 in 10.0 mi Calm Calm - N/A   Clear
3:30 AM 44.6 °F - 44.6 °F 100% 29.92 in 10.0 mi Calm Calm - N/A   Clear
3:50 AM 44.6 °F - 44.6 °F 100% 29.92 in 10.0 mi Calm Calm - N/A   Clear
4:10 AM 39.2 °F 35.0 °F 39.2 °F 100% 29.93 in 0.8 mi SSW 5.8 mph - N/A   Scattered Clouds
4:30 AM 41.0 °F 38.0 °F 41.0 °F 100% 29.93 in 7.0 mi South 4.6 mph - N/A   Scattered Clouds
4:55 AM 44.6 °F - 44.6 °F 100% 29.93 in 10.0 mi Calm Calm - N/A   Clear
5:15 AM 44.6 °F 43.1 °F 42.8 °F 93% 29.93 in 10.0 mi South 3.5 mph - N/A   Clear
5:35 AM 42.8 °F 40.1 °F 42.8 °F 100% 29.93 in 10.0 mi South 4.6 mph - N/A   Clear
6:00 AM 44.6 °F - 42.8 °F 93% 29.94 in 10.0 mi Calm Calm - N/A   Clear
6:20 AM 44.6 °F - 42.8 °F 93% 29.94 in 10.0 mi Calm Calm - N/A   Clear
6:40 AM 44.6 °F - 42.8 °F 93% 29.94 in 10.0 mi Calm Calm - N/A   Clear
7:00 AM 44.6 °F - 42.8 °F 93% 29.94 in 10.0 mi Calm Calm - N/A   Clear
7:45 AM 44.6 °F 43.1 °F 42.8 °F 93% 29.94 in 10.0 mi ESE 3.5 mph - N/A   Clear
8:25 AM 46.4 °F 45.2 °F 42.8 °F 87% 29.95 in 10.0 mi SE 3.5 mph - N/A   Clear
8:50 AM 48.2 °F - 44.6 °F 87% 29.95 in 10.0 mi ESE 3.5 mph - N/A   Clear
9:10 AM 50.0 °F - 44.6 °F 82% 29.96 in 10.0 mi ESE 4.6 mph - N/A   Clear
9:30 AM 51.8 °F - 44.6 °F 76% 29.96 in 10.0 mi ESE 5.8 mph - N/A   Clear
9:50 AM 51.8 °F - 44.6 °F 76% 29.97 in 10.0 mi SE 4.6 mph - N/A   Clear
10:35 AM 55.4 °F - 46.4 °F 72% 29.97 in 10.0 mi ESE 4.6 mph - N/A   Clear
10:55 AM 55.4 °F - 48.2 °F 77% 29.97 in 10.0 mi ESE 5.8 mph - N/A   Clear
11:15 AM 57.2 °F - 44.6 °F 63% 29.96 in 10.0 mi ESE 6.9 mph - N/A   Clear
11:35 AM 59.0 °F - 46.4 °F 63% 29.96 in 10.0 mi SE 6.9 mph - N/A   Clear
12:00 PM 59.0 °F - 46.4 °F 63% 29.96 in 10.0 mi SE 6.9 mph - N/A   Clear
12:20 PM 60.8 °F - 46.4 °F 59% 29.95 in 10.0 mi SSE 5.8 mph - N/A   Clear
12:40 PM 60.8 °F - 48.2 °F 63% 29.95 in 10.0 mi ESE 5.8 mph - N/A   Clear
1:00 PM 60.8 °F - 48.2 °F 63% 29.95 in 10.0 mi SE 5.8 mph - N/A   Clear
1:25 PM 62.6 °F - 48.2 °F 59% 29.95 in 10.0 mi SE 10.4 mph - N/A   Clear
1:45 PM 60.8 °F - 48.2 °F 63% 29.94 in 10.0 mi SE 9.2 mph - N/A   Clear
2:05 PM 62.6 °F - 50.0 °F 63% 29.94 in 10.0 mi SSE 6.9 mph - N/A   Clear
2:25 PM 60.8 °F - 48.2 °F 63% 29.93 in 10.0 mi SE 10.4 mph - N/A   Clear
2:50 PM 59.0 °F - 48.2 °F 67% 29.93 in 10.0 mi SSE 10.4 mph - N/A   Scattered Clouds
3:10 PM 59.0 °F - 48.2 °F 67% 29.93 in 10.0 mi SE 9.2 mph 17.3 mph N/A   Overcast
3:30 PM 59.0 °F - 48.2 °F 67% 29.93 in 10.0 mi SE 9.2 mph - N/A   Overcast
3:50 PM 57.2 °F - 50.0 °F 77% 29.93 in 10.0 mi ESE 8.1 mph - N/A   Overcast
4:15 PM 55.4 °F - 50.0 °F 82% 29.92 in 10.0 mi SE 10.4 mph - N/A   Overcast
4:35 PM 55.4 °F - 50.0 °F 82% 29.92 in 10.0 mi SE 8.1 mph - N/A   Overcast
4:55 PM 55.4 °F - 50.0 °F 82% 29.92 in 10.0 mi SE 10.4 mph - N/A   Overcast
5:15 PM 53.6 °F - 51.8 °F 94% 29.92 in 10.0 mi SE 8.1 mph - N/A   Overcast
5:40 PM 53.6 °F - 51.8 °F 94% 29.92 in 10.0 mi SE 11.5 mph 16.1 mph N/A   Overcast
6:00 PM 53.6 °F - 51.8 °F 94% 29.93 in 7.0 mi SE 11.5 mph 16.1 mph N/A   Overcast
6:20 PM 53.6 °F - 51.8 °F 94% 29.94 in 10.0 mi SE 13.8 mph 18.4 mph N/A   Overcast
6:40 PM 53.6 °F - 51.8 °F 94% 29.93 in 10.0 mi SE 12.7 mph 20.7 mph N/A   Overcast
7:05 PM 51.8 °F - 51.8 °F 100% 29.93 in 10.0 mi SE 10.4 mph 16.1 mph N/A   Overcast
7:25 PM 51.8 °F - 51.8 °F 100% 29.93 in 10.0 mi SE 12.7 mph 16.1 mph N/A   Overcast
7:45 PM 51.8 °F - 51.8 °F 100% 29.92 in 10.0 mi SE 10.4 mph 16.1 mph N/A   Overcast
8:05 PM 51.8 °F - 51.8 °F 100% 29.91 in 7.0 mi SE 12.7 mph 19.6 mph N/A   Overcast
8:30 PM 51.8 °F - 51.8 °F 100% 29.91 in 7.0 mi SE 13.8 mph 19.6 mph N/A   Overcast
8:50 PM 51.8 °F - 51.8 °F 100% 29.91 in 10.0 mi SE 13.8 mph 19.6 mph N/A   Overcast
9:10 PM 51.8 °F - 51.8 °F 100% 29.90 in 10.0 mi SE 15.0 mph 19.6 mph N/A   Overcast
9:30 PM 51.8 °F - 51.8 °F 100% 29.90 in 10.0 mi SE 15.0 mph 20.7 mph N/A   Overcast
9:55 PM 51.8 °F - 51.8 °F 100% 29.89 in 10.0 mi SE 16.1 mph - N/A   Mostly Cloudy
10:35 PM 51.8 °F - 51.8 °F 100% 29.91 in 10.0 mi SE 16.1 mph 24.2 mph N/A   Overcast
10:55 PM 51.8 °F - 51.8 °F 100% 29.91 in 10.0 mi SE 16.1 mph - N/A   Overcast
11:40 PM 51.8 °F - 51.8 °F 100% 29.90 in 10.0 mi SE 18.4 mph - N/A   Mostly Cloudy